This is the latest recevied weather packets stored in our database for station/object EB2GLU-13. If no packets are shown the sender has not sent any weather packets the latest 10 day(s).
| Time | Temp. | Humidity | Pressure | Rain* | Wind** | Luminosity | Snow |
|---|---|---|---|---|---|---|---|
| 1787555689 | 26.67° C | 71% | 1002.7 hPa | 0 mm | - | - | - |
| 1787554939 | 25.56° C | 69% | 1002.8 hPa | 0 mm | - | - | - |
| 1787554189 | 25° C | 74% | 1002.7 hPa | 0 mm | - | - | - |
| 1787553439 | 21.11° C | 93% | 1002.7 hPa | 0 mm | - | - | - |
| 1787552689 | 20° C | 99% | 1002.8 hPa | 0 mm | - | - | - |
| 1787551939 | 19.44° C | 99% | 1002.8 hPa | 0 mm | - | - | - |
| 1787551189 | 19.44° C | 99% | 1002.7 hPa | 0 mm | - | - | - |
| 1787550439 | 19.44° C | 99% | 1002.5 hPa | 0 mm | - | - | - |
| 1787549689 | 19.44° C | 99% | 1002.6 hPa | 0 mm | - | - | - |
| 1787548939 | 19.44° C | 99% | 1002.7 hPa | 0 mm | - | - | - |
| 1787548189 | 19.44° C | 99% | 1002.8 hPa | 0 mm | - | - | - |
| 1787547439 | 18.89° C | 99% | 1002.6 hPa | 0 mm | - | - | - |
| 1787546689 | 18.89° C | 99% | 1002.8 hPa | 0 mm | - | - | - |
| 1787545939 | 18.89° C | 99% | 1002.7 hPa | 0 mm | - | - | - |
| 1787545189 | 18.89° C | 99% | 1002.5 hPa | 0 mm | - | - | - |
| 1787544439 | 18.89° C | 99% | 1002.7 hPa | 0 mm | - | - | - |
| 1787543689 | 18.89° C | 99% | 1002.5 hPa | 0 mm | - | - | - |
| 1787542939 | 18.89° C | 99% | 1002.5 hPa | 0 mm | - | - | - |
| 1787542189 | 18.89° C | 99% | 1002.8 hPa | 0 mm | - | - | - |
| 1787541439 | 18.89° C | 99% | 1002.9 hPa | 0 mm | - | - | - |
| 1787540689 | 18.33° C | 99% | 1002.9 hPa | 0 mm | - | - | - |
| 1787539939 | 18.89° C | 99% | 1002.9 hPa | 0 mm | - | - | - |
| 1787539189 | 18.33° C | 99% | 1003.2 hPa | 0 mm | - | - | - |
| 1787538439 | 18.33° C | 99% | 1003.4 hPa | 0 mm | - | - | - |
| 1787537689 | 18.33° C | 99% | 1003.2 hPa | 0 mm | - | - | - |
* Rain latest hour (hover to see other rain measurements)
** Current wind speed in m/s (hover to see current wind gust speed)